User: anonymous
Location: Plum
(40.5000°N, 79.7500°W)
Time: 07:10:41
(UTC-04:00)
Language:

Cosmos 1825 - Orbit

View from above orbital plane
View from above orbital plane
View from above satellite
View from above satellite

Ground track
Ground track

The orbit data is extracted from the following two-line orbital elements,

1 17566U 87024A   14206.14372738  .00000656  00000-0  35916-4 0   495
2 17566 082.5055 255.6276 0003391 280.2164 133.5324 15.12526799493491
Epoch (UTC): 25 July 2014 03:26:58
Eccentricity: 0.0003391
inclination: 82.5055°
perigee height: 526 km
apogee height: 531 km
right ascension of ascending node: 255.6276°
argument of perigee: 280.2164°
revolutions per day: 15.12526799
mean anomaly at epoch: 133.5324°
orbit number at epoch: 49349

The dashed part of the orbit path shows where the satellite is in the earth's shadow,  

DLR